559  
ASUS43 KFSD 172010  
RWRFSD  
 
WEATHER ROUNDUP FOR SE SOUTH DAKOTA/SW MINNESOTA/NW IOWA  
NATIONAL WEATHER SERVICE SIOUX FALLS SD  
300 PM CDT WED OCT 17 2018  
 
NOTE: "FAIR" INDICATES FEW OR NO CLOUDS BELOW 12,000 FEET WITH NO  
SIGNIFICANT WEATHER AND OR S TO VISIBILITY
.  
 
 
SDZ038>040-050-052>070-172100-  
SOUTHEAST SOUTH DAKOTA  
 
CITY SKY/WX TMP DP RH WIND PRES REMARKS
 
BROOKINGS SUNNY 51 28 41 VRB5 30.42F  
CHAMBERLAIN SUNNY 64 42 43 E3 30.37F  
HURON SUNNY 54 31 41 S8 30.41F  
MADISON N/A 52 30 43 S5 30.42F  
MITCHELL SUNNY 55 35 47 S5 30.42F  
SIOUX FALLS SUNNY 54 33 45 VRB3 30.44S  
WINNER FAIR 71 35 26 NW9 30.36F  
YANKTON SUNNY 57 36 45 CALM 30.42F  

 
 
MNZ071-072-080-081-089-090-097-098-172100-  
SOUTHWEST MINNESOTA  
 
CITY SKY/WX TMP DP RH WIND PRES REMARKS
 
FAIRMONT SUNNY 47 23 38 VRB6 30.44F  
JACKSON SUNNY 48 25 40 NW6 30.44S  
LUVERNE SUNNY 52 27 37 CALM 30.44S  
MARSHALL SUNNY 49 24 37 VRB6 30.44F  
MONTEVIDEO SUNNY 48 21 34 N8 30.43F  
PIPESTONE SUNNY 50 28 43 CALM 30.42F  
REDWOOD FALLS SUNNY 50 25 37 N10 30.43F  
TRACY SUNNY 49 25 38 N3 30.43F  
WORTHINGTON SUNNY 49 26 41 NW9 30.44F  

 
 
IAZ001>003-012>014-020>022-031-032-NEZ013-014-SDZ071-172100-  
NORTHWEST IOWA  
 
CITY SKY/WX TMP DP RH WIND PRES REMARKS
 
CHEROKEE SUNNY 55 32 42 NW5 30.44S  
DENISON SUNNY 57 34 41 N5G16 30.45F  
ESTHERVILLE SUNNY 48 24 39 NW7 30.43F  
ORANGE CITY SUNNY 55 32 41 CALM 30.44S  
SHELDON SUNNY 55 28 35 N9 30.41F  
SIOUX CITY SUNNY 58 35 42 NE5 30.44F  
SPENCER SUNNY 54 27 35 NW7 30.44F  
STORM LAKE SUNNY 54 30 40 N6 30.43F  

 
 
ABBREVIATIONS USED IN REMARKS  
TC - TEMPERATURE IN CELSIUS  
WCI - WIND CHILL INDEX  
HX - HEAT INDEX  
VSB - VISIBILITY  
 
 
 
CLICK HERE TO GO TO PREVIOUS BULLETINS.

The Nexlab SD Page
The Nexlab IA Page
The Nexlab MN Page
The Nexlab NE Page Main Text Page